This is the latest recevied weather packets stored in our database for station/object EA1CZ-10. If no packets are shown the sender has not sent any weather packets the latest 1 day(s).
| Time | Temp. | Humidity | Pressure | Rain* | Wind** | Luminosity | Snow |
|---|---|---|---|---|---|---|---|
| 1777792970 | 5.56° C | 70% | 1026.9 hPa | - | - | - | - |
| 1777791170 | 5.56° C | 70% | 1026.7 hPa | - | - | - | - |
| 1777789370 | 5° C | 71% | 1026.6 hPa | - | - | - | - |
| 1777787570 | 5° C | 71% | 1026.5 hPa | - | - | - | - |
| 1777785770 | 5° C | 71% | 1026.5 hPa | - | - | - | - |
| 1777783970 | 5° C | 70% | 1026.7 hPa | - | - | - | - |
| 1777782170 | 5° C | 71% | 1026.6 hPa | - | - | - | - |
| 1777780370 | 5° C | 70% | 1026.8 hPa | - | - | - | - |
| 1777778570 | 5° C | 70% | 1026.9 hPa | - | - | - | - |
| 1777776771 | 5° C | 70% | 1027 hPa | - | - | - | - |
| 1777774972 | 5° C | 70% | 1027.2 hPa | - | - | - | - |
| 1777767770 | 5° C | 70% | 1027.9 hPa | - | - | - | - |
| 1777765976 | 5° C | 70% | 1028.2 hPa | - | - | - | - |
| 1777764169 | 5° C | 69% | 1028.3 hPa | - | - | - | - |
| 1777760547 | 5° C | 69% | 1028.6 hPa | - | - | - | - |
| 1777758754 | 5° C | 69% | 1028.7 hPa | - | - | - | - |
| 1777756947 | 5.56° C | 69% | 1028.8 hPa | - | - | - | - |
| 1777755147 | 5.56° C | 69% | 1028.6 hPa | - | - | - | - |
| 1777753347 | 8.33° C | 67% | 1028.3 hPa | - | - | - | - |
| 1777751547 | 7.78° C | 67% | 1028.3 hPa | - | - | - | - |
| 1777749747 | 7.78° C | 68% | 1028.3 hPa | - | - | - | - |
| 1777747946 | 9.44° C | 66% | 1028.3 hPa | - | - | - | - |
| 1777746146 | 12.22° C | 66% | 1028.4 hPa | - | - | - | - |
| 1777744353 | 12.78° C | 65% | 1028.2 hPa | - | - | - | - |
| 1777742546 | 14.44° C | 65% | 1028 hPa | - | - | - | - |
* Rain since midnight (hover to see other rain measurements)
** Current wind speed in m/s (hover to see current wind gust speed)